Flag Weather past 2 weeks in Gänserndorf, Lower Austria, Austria

Now
37 °F

Overcast.


Feels Like: 31 °F
Forecast: 31 / 39 °F
Wind: 8 mph from Southeast

Location: Wien / Schwechat-Flughafen

Current Time: Nov 27, 2014 at 12:18:08 AM

Latest Report: Nov 26, 2014 at 11:00 PM


Visibility: 5 mi

Pressure: 30.17 "Hg

Humidity: 87%

Dew point: 33 °F

Location of GänserndorfLocation

Historic Weather in Gänserndorf — Graph

°F

Gänserndorf temperature yesterday

Maximum temperature yesterday: 40 °F (at 1:00 PM)
Minimum temperature yesterday: 34 °F (at 8:00 AM)
Average temperature yesterday: 38 °F

Past Weeks' High & Low Weather Summary

 TemperatureHumidityPressure
High57 °F (Nov 12, 2:00 PM)100% (Nov 17, 5:00 AM)30.42 "Hg (Nov 17, 5:00 AM)
Low34 °F (Nov 26, 8:00 AM)66% (Nov 19, 11:00 AM)29.69 "Hg (Nov 16, 6:00 AM)
Average45 °F88%30.07 "Hg
* Reported Nov 11 11:00 PM — Nov 26 11:00 PM, Gänserndorf, Weather by CustomWeather, © 2014

Note: Actual official high and low records may vary slightly from our data, if they occured in-between our weather recording intervals... More about our weather records

Advertising

Gänserndorf weather history for previous 24 hours

 ConditionsComfort  
Time TempWeatherWind HumidityBarometerVisibility
11:00 PM
Nov 26
37 °FOvercast.8 mph87%30.17 "Hg5 mi
10:00 PM38 °FOvercast.8 mph86%30.18 "Hg5 mi
9:00 PM38 °FOvercast.8 mph85%30.18 "Hg5 mi
8:00 PM38 °FOvercast.7 mph87%30.19 "Hg4 mi
7:00 PM38 °FOvercast.7 mph87%30.19 "Hg4 mi
6:00 PM38 °FOvercast.6 mph86%N/A5 mi
5:00 PM38 °FOvercast.6 mph86%30.21 "Hg5 mi
4:00 PM39 °FOvercast.6 mph85%30.21 "Hg4 mi
3:00 PM40 °FOvercast.7 mph81%30.21 "Hg6 mi
2:00 PM40 °FOvercast.8 mph82%30.22 "Hg5 mi
1:00 PM40 °FOvercast.8 mph80%30.23 "Hg5 mi
12:00 PM39 °FOvercast.8 mph86%30.24 "Hg4 mi
11:00 AM38 °FOvercast.6 mph88%30.27 "Hg4 mi
10:00 AM36 °FOvercast.5 mph92%30.27 "Hg3 mi
9:00 AM35 °FScattered clouds.5 mph93%30.28 "Hg2 mi
8:00 AM34 °FScattered clouds.5 mph95%30.28 "Hg2 mi
7:00 AM36 °FOvercast.6 mph92%30.27 "Hg4 mi
6:00 AM37 °FOvercast.6 mph91%30.27 "Hg4 mi
5:00 AM37 °FOvercast.6 mph89%30.28 "Hg4 mi
4:00 AM37 °FOvercast.N/A90%30.29 "Hg4 mi
3:00 AM37 °FOvercast.5 mph90%30.30 "Hg4 mi
2:00 AM38 °FOvercast.3 mph89%30.32 "Hg4 mi
1:00 AM38 °FOvercast.3 mph84%30.33 "Hg4 mi
12:00 AM38 °FOvercast.3 mph96%30.34 "Hg2 mi
Weather by CustomWeather, © 2014

See weather overviewHow to use our weather pages